SL-8 DEB, 2647

Orbit data source: Space-Track

SL-8 DEB, 2647 is space debris in LEO originally from a launch on Sat, 18 Sep 1965 UTC launched from the Tyuratam Missile And Space Complex (TTMTR). Debris objects in space refer to the collection of defunct objects orbiting the Earth. Examples of debris include non-operational satellites, rocket bodies, and fragments generated from explosions, collisions, or faulty payload assembly.

Loading next visibility...
Identifier
2647, 1965-073L
Orbit
LEO
Country
Flag of CISCIS
Related business
Manufacturer
Unknown
Mission
Spacecraft
Bus & Motor
Unknown
Mass
Unknown
Launch date (UTC)
1965-09-18 (60 years ago)
Launch vehicle
Unknown
Launch site
Tyuratam Missile And Space Complex (TTMTR)
Object type
Payload
Rocket body
Debris
Shape & HBR
Unknown shape, 0.1 m
Radar Cross Section
Small (<0.1 m²)

Expand to show TLE details & history
Last TLE update: 17 hours ago

TLE from 17 hours ago
0 SL-8 DEB
1 02647U 65073L   25347.30703304 -.00000062  00000-0  21272-3 0  9997
2 02647  56.0665 324.6008 0186474 178.0607 301.1627 12.43670635 93505
Epoch: 2025-12-13T07:22Z
TLE epoch observation values (Epoch: 2025-12-13T07:22:07.654Z)
Latitude
47.58309°
Longitude
-95.28518°
Altitude
1,422.826 km
Speed
7.188 km/s
True Right ascension
06h 29m 55s
True Declination
47° 25' 35"
Sunlit
Object was in full shadow at epoch
Visualization orbit readout
Latitude
Unknown
Longitude
Unknown
Altitude
Unknown
Speed
Unknown
Apparent Right ascension
Unknown
Apparent Declination
Unknown
Sunlit
N/A
Visualization observer readout
Local Sidereal Time
22:55:46
Azimuth
Unknown
Elevation
Unknown
Doppler factor
Unknown
Orbital elements
Apogee altitude
1,637.641 km
Perigee altitude
1,344.167 km
Semi-major axis
7,869.041 km
Eccentricity
0.01865
Inclination
56.0665°
RAAN
324.6008°
Arg. of periapsis
178.0607°
True anomaly
299.31222°
Mean anomaly
301.1627°
Eccentric anomaly
300.23967°
Mean motion
3.10928 °/min
Orbital period
115.78 mins
BSTAR
0.00021272
Loading maneuver chart data...
Computing Atmospheric mass density...
Loading historical data...
Loading historical data...
Loading historical data...
Loading historical data...
Loading historical data...
Loading historical data...
Loading historical data...

Documentation

Showing up to 5 results
|